Tracking 30107 objects as of 18-Jan-2025
HD Live streaming from Space Station
objects crossing your sky now

MOLNIYA 3-27

Track MOLNIYA 3-27 now!
MOLNIYA 3-27 is classified as:


NORAD ID: 16393
Int'l Code: 1985-117A
Perigee: 849.1 km
Apogee: 37,536.6 km
Inclination: 62.8 °
Period: 678.0 minutes
Semi major axis: 25563 km
RCS: 15.138 m2 (large)
Launch date: December 24, 1985
Source: Commonwealth of Independent States (former USSR) (CIS)
Launch site: PLESETSK MISSILE AND SPACE COMPLEX (PKMTR)
Your satellite tracking list
Your tracking list is empty




NASA's NSSDC Master Catalog

Two Line Element Set (TLE):
1 16393U 85117A   25018.08388561 -.00000013  00000-0  00000-0 0  9994
2 16393  62.8272 304.0459 7175665 246.7580  26.6607  2.12404413294266
Source of the keplerian elements: AFSPC